[[{"header":{"parameterUnit":"m.s-1","parameterCategory":1,"la1":30.2991,"la2":30.254,"lo1":-89.0895,"lo2":-89.0444,"dy":0.0017,"dx":0.0017,"nx":28,"ny":28,"refTime":"2025-01-27T09:00:00:Z","depth":0,"parameterNumber":2,"parameterNumberName":"U-component_of_WINDS"},"data":[0,0,0,0,0,0,0,0,0,0,0,0,0,0,0,0,0,0,0,0,0,0,0,0,0,0,0,0,0,0,0,0,0,0,0,0,0,0,0,0,0,0,0,0,0,0,0,0,0,0,0,0,0,0,0,0,0,0,-2.0185,-2.0185,0,-2.0263,-2.0264,-2.0265,-2.0247,-2.0246,-2.0245,-2.0243,-2.0323,-2.0327,-2.033,0,0,0,0,0,0,0,0,0,0,0,0,0,-2.0019,-2.0022,-2.0184,-2.0185,-2.0186,-2.0263,-2.0264,-2.0265,-2.0248,-2.0246,-2.0244,-2.0242,-2.0322,-2.0326,-2.0331,0,0,0,0,0,0,0,0,0,0,0,0,0,-2.0093,-2.0023,-2.0184,-2.0187,-2.0188,-2.0263,-2.0264,-2.0265,-2.0248,-2.0246,-2.0244,-2.0242,-2.0321,-2.0326,-2.0331,-2.0408,0,0,-2.0347,-2.0349,0,0,0,0,0,0,0,0,-2.0089,-2.0099,-2.0186,-2.0187,-2.0188,-2.0243,-2.0235,-2.0313,-2.0249,-2.0225,-2.0243,-2.0241,-2.0298,-2.0305,-2.0325,-2.0412,-2.0415,-2.0348,-2.0351,-2.0353,-2.0355,0,0,0,0,0,0,0,-2.0084,-2.0096,-2.0216,-2.0187,-2.0188,-2.0184,-2.0192,-2.025,-2.0273,-2.0227,-2.0226,-2.0236,-2.0299,-2.032,-2.0327,-2.0416,-2.0348,-2.0352,-2.0355,-2.0357,-2.0569,-2.0571,0,0,0,0,0,0,-2.0078,-2.0092,-2.0213,-2.0218,-2.0132,-2.0189,-2.0198,-2.0228,-2.0273,-2.0277,-2.0237,-2.0235,-2.0312,-2.0321,-2.0329,-2.0421,-2.0353,-2.0358,-2.0361,-2.0567,-2.057,-2.0572,0,0,0,0,0,0,-2.0074,-2.0089,-2.021,-2.0155,-2.017,-2.0194,-2.0228,-2.0231,-2.0252,-2.028,-2.0284,-2.0255,-2.0311,-2.0322,-2.0388,-2.0424,-2.036,-2.0365,-2.0564,-2.0568,-2.0571,-2.0607,0,0,0,0,0,0,-2.007,-2.0088,-2.0117,-2.0155,-2.0173,-2.0268,-2.023,-2.0234,-2.0261,-2.0258,-2.0298,-2.0302,-2.031,-2.0381,-2.0394,-2.043,-2.0369,-2.0561,-2.0565,-2.057,-2.0602,-2.0611,-2.0618,0,0,0,0,0,-2.0064,-2.0124,-2.0119,-2.0133,-2.021,-2.027,-2.028,-2.0287,-2.0264,-2.0293,-2.0312,-2.0301,-2.0418,-2.0388,-2.0402,-2.0441,-2.0558,-2.0564,-2.0569,-2.0599,-2.0609,-2.0618,0,0,0,0,0,0,-2.0089,-2.0129,-2.0124,-2.0198,-2.0231,-2.0267,-2.0304,-2.0298,-2.0338,-2.0333,-2.0341,-2.035,-2.0417,-2.0436,-2.0401,-2.0517,-2.0485,-2.0494,-2.0502,-2.0513,-2.0521,-2.0514,-2.0374,0,0,0,0,0,-2.0104,-2.0149,-2.0181,-2.0244,-2.0261,-2.028,-2.0306,-2.0309,-2.0343,-2.0356,-2.038,-2.0413,-2.0457,-2.0486,-2.0529,-2.0605,-2.0613,-2.0639,-2.0647,-2.0654,-2.0661,-2.0702,-2.0713,-2.059,-2.059,-2.059,0,0,-2.0133,-2.0161,-2.0189,-2.025,-2.0275,-2.0321,-2.0291,-2.0342,-2.0376,-2.0364,-2.0428,-2.0446,-2.0484,-2.0555,-2.0588,-2.0573,-2.0697,-2.0661,-2.0666,-2.0669,-2.0709,-2.072,-2.073,-2.0594,-2.0594,-2.0593,0,0,-2.0211,-2.0237,-2.0292,-2.0318,-2.0357,-2.0369,-2.0383,-2.042,-2.0431,-2.0496,-2.0487,-2.0528,-2.0605,-2.0632,-2.0655,-2.0744,-2.0735,-2.0757,-2.0799,-2.0839,-2.0849,-2.0857,-2.0887,-2.0898,-2.0764,-2.0765,-2.0765,0,-2.0243,-2.0313,-2.032,-2.0372,-2.0398,-2.039,-2.0445,-2.047,-2.0521,-2.0539,-2.0522,-2.0617,-2.0642,-2.0719,-2.0741,-2.0761,-2.0775,-2.0752,-2.0847,-2.0855,-2.0863,-2.0892,-2.0904,-2.0767,-2.0767,-2.0766,-2.0766,0,-2.035,-2.0398,-2.0438,-2.0487,-2.0518,-2.0571,-2.0586,-2.0617,-2.0618,-2.0632,-2.0697,-2.0727,-2.0774,-2.0793,-2.0795,-2.0871,-2.086,-2.0845,-2.0812,-2.0877,-2.0905,-2.0916,-2.077,-2.077,-2.0769,-2.0768,0,0,-2.0445,-2.0498,-2.0512,-2.0534,-2.0577,-2.0614,-2.0667,-2.0714,-2.0739,-2.0775,-2.0818,-2.0884,-2.0869,-2.0896,-2.09,-2.0936,-2.1002,-2.0916,-2.0917,-2.093,-2.1087,-2.1097,-2.111,-2.0997,-2.1,-2.1001,-2.1083,0,-2.0525,-2.0618,-2.0626,-2.0709,-2.0753,-2.0746,-2.0792,-2.0823,-2.0838,-2.0877,-2.0894,-2.0939,-2.0918,-2.0934,-2.0969,-2.0987,-2.1034,-2.0981,-2.1037,-2.1039,-2.1026,-2.1124,-2.1135,-2.1211,-2.1094,-2.1096,-2.1097,0,-2.0631,-2.067,-2.0757,-2.0793,-2.0812,-2.0853,-2.0896,-2.0935,-2.097,-2.0978,-2.1008,-2.1007,-2.1061,-2.1028,-2.1101,-2.1065,-2.1089,-2.1101,-2.1105,-2.1109,-2.1071,-2.113,-2.1236,-2.1247,-2.1115,-2.1113,-2.1112,0,-2.069,-2.0764,-2.0825,-2.0845,-2.0889,-2.0917,-2.0937,-2.097,-2.0998,-2.1036,-2.1053,-2.1098,-2.1121,-2.1155,-2.1166,-2.1141,-2.1239,-2.1207,-2.1246,-2.1246,-2.1266,-2.1264,-2.1376,-2.1284,-2.1284,-2.1284,-2.1283,0,-2.0778,-2.0831,-2.0852,-2.089,-2.0949,-2.0959,-2.1017,-2.1035,-2.1065,-2.1105,-2.1103,-2.1141,-2.1154,-2.1194,-2.1204,-2.1262,-2.1274,-2.1281,-2.1283,-2.1281,-2.1279,-2.1295,-2.1289,-2.1287,-2.1286,-2.1285,-2.1285,0,-2.0853,-2.0869,-2.0935,-2.0972,-2.0983,-2.1024,-2.1055,-2.1092,-2.1106,-2.1158,-2.117,-2.1193,-2.1241,-2.1255,-2.1313,-2.1319,-2.1387,-2.1385,-2.1375,-2.1375,-2.1413,-2.1408,-2.1537,-2.1554,-2.1452,-2.1453,-2.1454,0,-2.0907,-2.0948,-2.0989,-2.1016,-2.1037,-2.1081,-2.1109,-2.112,-2.1149,-2.1192,-2.1223,-2.127,-2.1308,-2.1384,-2.1405,-2.1449,-2.1447,-2.1489,-2.1453,-2.1449,-2.1445,-2.1442,-2.1446,-2.1495,-2.1496,-2.1497,-2.1498,0,-2.1001,-2.1007,-2.1048,-2.1092,-2.1125,-2.116,-2.1194,-2.1216,-2.1232,-2.1265,-2.1314,-2.1343,-2.1402,-2.1448,-2.1493,-2.1512,-2.1507,-2.1509,-2.152,-2.1517,-2.1509,-2.1512,-2.1392,-2.1505,-2.1505,-2.1504,-2.1504,-2.1503,-2.1066,-2.1102,-2.1136,-2.1181,-2.1208,-2.1239,-2.1275,-2.1294,-2.1335,-2.1383,-2.1387,-2.1439,-2.1473,-2.1533,-2.1555,-2.1595,-2.1583,-2.16,-2.1604,-2.1607,-2.1609,-2.1504,-2.1604,-2.1604,-2.1603,-2.1603,-2.1603,0,-2.1159,-2.1181,-2.1222,-2.1269,-2.1305,-2.1298,-2.1335,-2.1365,-2.1411,-2.1443,-2.148,-2.1536,-2.1581,-2.1606,-2.1651,-2.1679,-2.1677,-2.169,-2.1687,-2.1691,-2.1618,-2.1604,-2.169,-2.169,-2.169,-2.169,-2.169,-2.169,-2.1211,-2.127,-2.1281,-2.1353,-2.1375,-2.1425,-2.1447,-2.1476,-2.1501,-2.1563,-2.1601,-2.1617,-2.1646,-2.1693,-2.1734,-2.174,-2.1756,-2.177,-2.1774,-2.1706,-2.1697,-2.1688,-2.1674,-2.1774,-2.1774,-2.1844,-2.1844,-2.1845]},{"header":{"parameterUnit":"m.s-1","parameterCategory":1,"la1":30.2991,"la2":30.254,"lo1":-89.0895,"lo2":-89.0444,"dy":0.0017,"dx":0.0017,"nx":28,"ny":28,"refTime":"2025-01-27T09:00:00:Z","depth":0,"parameterNumber":3,"parameterNumberName":"V-component_of_WINDS"},"data":[0,0,0,0,0,0,0,0,0,0,0,0,0,0,0,0,0,0,0,0,0,0,0,0,0,0,0,0,0,0,0,0,0,0,0,0,0,0,0,0,0,0,0,0,0,0,0,0,0,0,0,0,0,0,0,0,0,0,0.3957,0.3957,0,0.3941,0.394,0.394,0.3919,0.3918,0.3918,0.3917,0.3901,0.3901,0.3901,0,0,0,0,0,0,0,0,0,0,0,0,0,0.3971,0.3971,0.3957,0.3957,0.3957,0.3941,0.394,0.394,0.3919,0.3918,0.3918,0.3917,0.3901,0.3901,0.3901,0,0,0,0,0,0,0,0,0,0,0,0,0,0.3961,0.3971,0.3957,0.3944,0.3943,0.3941,0.394,0.394,0.3919,0.3918,0.3918,0.3917,0.3901,0.3901,0.3901,0.3911,0,0,0.39,0.39,0,0,0,0,0,0,0,0,0.3962,0.3961,0.3946,0.3945,0.3943,0.3931,0.3939,0.393,0.3919,0.3928,0.3917,0.3917,0.3912,0.391,0.3909,0.391,0.3909,0.39,0.39,0.39,0.39,0,0,0,0,0,0,0,0.3962,0.3961,0.3951,0.3946,0.3944,0.3939,0.3937,0.3938,0.3923,0.3927,0.3925,0.3924,0.3911,0.3909,0.3908,0.3909,0.39,0.39,0.39,0.39,0.3919,0.392,0,0,0,0,0,0,0.3965,0.3962,0.3951,0.395,0.3951,0.394,0.3937,0.3936,0.3923,0.392,0.3924,0.3923,0.3909,0.3908,0.3907,0.3919,0.39,0.39,0.39,0.3919,0.392,0.392,0,0,0,0,0,0,0.3965,0.3964,0.3952,0.3956,0.3954,0.394,0.3938,0.3936,0.3934,0.3921,0.3918,0.3925,0.3909,0.3908,0.391,0.3919,0.39,0.39,0.3918,0.3919,0.392,0.3943,0,0,0,0,0,0,0.3966,0.3965,0.3968,0.3956,0.3954,0.3955,0.3939,0.3936,0.3933,0.3931,0.3921,0.3918,0.3908,0.3911,0.391,0.3918,0.39,0.3917,0.3919,0.392,0.3941,0.3944,0.3947,0,0,0,0,0,0.3966,0.3974,0.3968,0.3967,0.3957,0.3955,0.3954,0.3942,0.3934,0.3938,0.393,0.3919,0.3918,0.3911,0.391,0.3918,0.3917,0.3918,0.392,0.394,0.3944,0.3947,0,0,0,0,0,0,0.3987,0.3973,0.3965,0.3969,0.3964,0.3952,0.3955,0.3946,0.3943,0.3941,0.3927,0.3924,0.3929,0.3924,0.3917,0.3928,0.3916,0.3917,0.3932,0.3935,0.3938,0.394,0.39,0,0,0,0,0,0.3993,0.3992,0.3979,0.3984,0.3982,0.3969,0.3968,0.3959,0.3953,0.395,0.3942,0.3937,0.3936,0.3935,0.3932,0.394,0.3938,0.3945,0.3948,0.3951,0.3952,0.3958,0.3961,0.3925,0.3925,0.3925,0,0,0.4003,0.3995,0.3995,0.3988,0.3983,0.3983,0.3967,0.3968,0.3968,0.3951,0.3953,0.3947,0.394,0.3946,0.3948,0.3942,0.3962,0.3952,0.3954,0.3955,0.3959,0.3963,0.3966,0.3926,0.3925,0.3925,0,0,0.4023,0.4016,0.402,0.4016,0.4008,0.4,0.4001,0.399,0.3986,0.3988,0.3975,0.3976,0.3973,0.3969,0.3966,0.3986,0.3977,0.3986,0.4001,0.4007,0.401,0.4012,0.4021,0.4024,0.3987,0.3987,0.3987,0,0.4037,0.4037,0.4024,0.4026,0.4024,0.4008,0.4013,0.4009,0.4001,0.4,0.3993,0.399,0.3984,0.3989,0.3995,0.3993,0.3994,0.3987,0.401,0.4013,0.4015,0.4023,0.4026,0.3989,0.3989,0.3988,0.3988,0,0.4056,0.4056,0.406,0.4053,0.4052,0.4055,0.4043,0.4043,0.4035,0.4028,0.4032,0.4024,0.4021,0.4021,0.4013,0.4026,0.4022,0.4013,0.4,0.402,0.4027,0.403,0.399,0.399,0.399,0.3989,0,0,0.4088,0.4075,0.4077,0.4074,0.4065,0.4065,0.4068,0.4065,0.4066,0.4061,0.4065,0.4063,0.4055,0.4052,0.4044,0.4048,0.4067,0.4038,0.4038,0.4045,0.4082,0.4091,0.4094,0.406,0.406,0.4061,0.4083,0,0.4107,0.4112,0.4101,0.4108,0.4109,0.4095,0.4098,0.4093,0.4087,0.4087,0.408,0.408,0.4068,0.4067,0.407,0.4063,0.4074,0.4061,0.4064,0.4064,0.4067,0.4098,0.4106,0.4128,0.4086,0.4087,0.4087,0,0.413,0.4127,0.4135,0.4127,0.4127,0.4129,0.4127,0.4127,0.4121,0.4117,0.4114,0.4105,0.4108,0.4095,0.4101,0.4093,0.4093,0.409,0.409,0.4091,0.4077,0.4101,0.4134,0.4138,0.4091,0.4091,0.409,0,0.4154,0.4152,0.4157,0.4155,0.4145,0.4148,0.4144,0.4138,0.4138,0.4135,0.4135,0.4133,0.4132,0.4131,0.4122,0.4113,0.4129,0.4115,0.4126,0.4126,0.4131,0.4131,0.4166,0.4129,0.4129,0.4129,0.4129,0,0.4178,0.4183,0.4169,0.4172,0.4178,0.4166,0.4173,0.4168,0.4163,0.4165,0.4152,0.4155,0.4141,0.4143,0.4135,0.4142,0.4141,0.4138,0.4136,0.414,0.4141,0.4141,0.414,0.413,0.4129,0.4129,0.4129,0,0.4207,0.4197,0.4201,0.4192,0.419,0.4195,0.4188,0.4191,0.4184,0.4187,0.4187,0.4177,0.4178,0.4168,0.4167,0.4162,0.4173,0.4168,0.4175,0.4174,0.4186,0.4186,0.4224,0.4229,0.4187,0.4187,0.4188,0,0.4222,0.4227,0.4218,0.4219,0.4216,0.4217,0.4217,0.4205,0.4205,0.4201,0.4205,0.4205,0.4205,0.4207,0.42,0.42,0.4195,0.4209,0.4195,0.4199,0.4197,0.4198,0.4199,0.4212,0.4212,0.4213,0.4213,0,0.4252,0.4248,0.4248,0.4246,0.4246,0.4245,0.4242,0.4244,0.4231,0.4232,0.4234,0.4233,0.4233,0.4234,0.4233,0.4229,0.422,0.4218,0.422,0.4225,0.423,0.4229,0.4184,0.4217,0.4217,0.4216,0.4216,0.4216,0.4276,0.428,0.4275,0.4276,0.4273,0.4272,0.4274,0.4268,0.4269,0.4268,0.4261,0.4264,0.426,0.4257,0.4255,0.4258,0.4251,0.4255,0.4256,0.4258,0.4261,0.4228,0.4257,0.4257,0.4257,0.4257,0.4257,0,0.4307,0.4303,0.4304,0.4302,0.4303,0.4293,0.4291,0.4292,0.4295,0.4292,0.4292,0.4295,0.4296,0.4289,0.429,0.4293,0.4289,0.4294,0.4294,0.4294,0.4265,0.4264,0.4297,0.4297,0.4297,0.4297,0.4297,0.4297,0.4323,0.433,0.4325,0.433,0.4327,0.433,0.4329,0.4328,0.4326,0.4329,0.433,0.4326,0.4321,0.4322,0.4323,0.4321,0.4322,0.4329,0.4326,0.43,0.4296,0.4292,0.429,0.4329,0.4329,0.4354,0.4354,0.4355]}]]